Location: Gourdan-Polignan
(43.0709°N, 0.5748°E)
Time: 11:26:48
(UTC+00:00)

Cosmos 1763 Rocket - Pass Details

Date: 15 May 2026
Orbit: 728 x 773 km, 74.0° (Epoch: 8 June)

Event Time Altitude Azimuth Distance (km) Brightness Sun altitude
Exits shadow 21:10:52 31° 136° (SE) 1,340 4.2 -17.5°
Maximum altitude 21:12:20 37° 102° (ESE) 1,194 4.1 -17.6°
Drops below altitude 10° 21:17:08 10° 36° (NE) 2,321 6.2 -18.2°
Sets 21:19:39 0° 29° (NNE) 3,248 7.1 -18.5°
